Location: Newark
(54.4333°N, 18.5500°E)
Time: 03:50:38
(UTC+00:00)

Envisat - Pass Details

Date: 10 December 2019
Orbit: 764 x 766 km, 98.1° (Epoch: 26 January)

Event Time Altitude Azimuth Distance (km) Brightness Sun altitude
Rises 04:36:52 0° 22° (NNE) 3,249 6.4 -18.6°
Reaches altitude 10° 04:39:37 10° 36° (NE) 2,317 5.8 -18.3°
Maximum altitude 04:43:45 24° 90° (E) 1,541 5.4 -17.7°
Drops below altitude 10° 04:47:51 10° 145° (SE) 2,302 6.2 -17.1°
Sets 04:50:33 0° 158° (SSE) 3,222 6.8 -16.7°
